• In Czech Republic
  • List of Countries
  • For 7 days
  • Water Temperature
  • Satellite Maps
  • Weather Map
  • Weather Widgets
  • user-avatar
    Login

    Hourly Weather Primorsko

    Today, 14 November, Wednesday

    Time Temperature Precipitation Wind Pressure Humidity
    00:00 +7°C° 0 mm 5 mps 771 mmHg 83%
    01:00 +7°C° 0 mm 4 mps 770 mmHg 84%
    02:00 +7°C° 0 mm 4 mps 770 mmHg 84%
    03:00 +7°C° 0 mm 4 mps 770 mmHg 84%
    04:00 +7°C° 0 mm 4 mps 769 mmHg 85%
    05:00 +7°C° 0 mm 4 mps 769 mmHg 85%
    06:00 +7°C° 0 mm 4 mps 769 mmHg 85%
    07:00 +8°C° 0 mm 3 mps 769 mmHg 84%
    08:00 +8°C° 0 mm 3 mps 769 mmHg 83%
    09:00 +9°C° 0 mm 3 mps 769 mmHg 77%
    10:00 +10°C° 0 mm 3 mps 769 mmHg 72%
    11:00 +11°C° 0 mm 3 mps 769 mmHg 66%
    12:00 +11°C° 0 mm 3 mps 768 mmHg 64%
    13:00 +11°C° 0 mm 3 mps 768 mmHg 63%
    14:00 +12°C° 0 mm 3 mps 767 mmHg 62%
    15:00 +11°C° 0 mm 3 mps 767 mmHg 64%
    16:00 +10°C° 0 mm 3 mps 767 mmHg 67%
    17:00 +10°C° 0 mm 3 mps 767 mmHg 70%
    18:00 +9°C° 0 mm 3 mps 767 mmHg 72%
    19:00 +9°C° 0 mm 3 mps 767 mmHg 74%
    20:00 +8°C° 0 mm 3 mps 767 mmHg 76%
    21:00 +8°C° 0 mm 2 mps 767 mmHg 77%
    22:00 +8°C° 0 mm 2 mps 767 mmHg 77%
    23:00 +8°C° 0 mm 2 mps 766 mmHg 77%

    Tomorrow, 15 November, Thursday

    Time Temperature Precipitation Wind Pressure Humidity
    00:00 +9°C° 0 mm 2 mps 766 mmHg 77%
    01:00 +9°C° 0 mm 2 mps 766 mmHg 77%
    02:00 +9°C° 0 mm 2 mps 766 mmHg 77%
    03:00 +9°C° 0.1 mm 3 mps 765 mmHg 79%
    04:00 +9°C° 0.1 mm 3 mps 765 mmHg 80%
    05:00 +8°C° 0.1 mm 3 mps 765 mmHg 82%
    06:00 +7°C° 0.9 mm 4 mps 765 mmHg 83%
    07:00 +7°C° 0.9 mm 5 mps 765 mmHg 85%
    08:00 +7°C° 0.9 mm 6 mps 765 mmHg 86%
    09:00 +6°C° 1.2 mm 7 mps 765 mmHg 85%
    10:00 +6°C° 1.2 mm 7 mps 765 mmHg 84%
    11:00 +8°C° 1.2 mm 7 mps 766 mmHg 82%
    12:00 +8°C° 0.9 mm 7 mps 766 mmHg 78%
    13:00 +9°C° 0.9 mm 8 mps 765 mmHg 73%
    14:00 +9°C° 0.9 mm 8 mps 765 mmHg 68%
    15:00 +9°C° 0.2 mm 8 mps 765 mmHg 69%
    16:00 +9°C° 0.2 mm 8 mps 765 mmHg 70%
    17:00 +7°C° 0.2 mm 8 mps 765 mmHg 71%
    18:00 +7°C° 0.2 mm 8 mps 765 mmHg 74%
    19:00 +7°C° 0.2 mm 8 mps 766 mmHg 76%
    20:00 +6°C° 0.2 mm 7 mps 766 mmHg 79%
    21:00 +6°C° 0.2 mm 7 mps 766 mmHg 80%
    22:00 +6°C° 0.2 mm 7 mps 766 mmHg 81%
    23:00 +6°C° 0.2 mm 7 mps 766 mmHg 83%

    Day after tomorrow, 16 November, Friday

    Time Temperature Precipitation Wind Pressure Humidity
    00:00 +5°C° 0.3 mm 7 mps 766 mmHg 84%
    01:00 +5°C° 0.3 mm 7 mps 766 mmHg 86%
    02:00 +5°C° 0.3 mm 7 mps 766 mmHg 87%
    03:00 +5°C° 0.3 mm 7 mps 766 mmHg 87%
    04:00 +4°C° 0.3 mm 7 mps 766 mmHg 88%
    05:00 +4°C° 0.3 mm 7 mps 766 mmHg 88%
    06:00 +4°C° 0.3 mm 7 mps 766 mmHg 88%
    07:00 +4°C° 0.3 mm 7 mps 767 mmHg 87%
    08:00 +4°C° 0.3 mm 8 mps 767 mmHg 87%
    09:00 +5°C° 0.3 mm 8 mps 767 mmHg 83%
    10:00 +5°C° 0.3 mm 8 mps 768 mmHg 79%
    11:00 +6°C° 0.3 mm 8 mps 768 mmHg 75%
    12:00 +6°C° 0.1 mm 8 mps 768 mmHg 71%
    13:00 +7°C° 0.1 mm 8 mps 768 mmHg 68%
    14:00 +7°C° 0.1 mm 8 mps 768 mmHg 65%
    15:00 +6°C° 0.1 mm 8 mps 768 mmHg 67%
    16:00 +6°C° 0.1 mm 8 mps 768 mmHg 70%
    17:00 +5°C° 0.1 mm 8 mps 768 mmHg 72%
    18:00 +4°C° 0.1 mm 8 mps 769 mmHg 74%
    19:00 +4°C° 0.1 mm 8 mps 769 mmHg 76%
    20:00 +2°C° 0.1 mm 8 mps 769 mmHg 78%
    21:00 +2°C° 0 mm 8 mps 770 mmHg 79%
    22:00 +3°C° 0 mm 7 mps 770 mmHg 80%
    23:00 +2°C° 0 mm 7 mps 770 mmHg 81%

    17 November, Saturday

    Time Temperature Precipitation Wind Pressure Humidity
    00:00 +2°C° 0 mm 7 mps 770 mmHg 82%
    01:00 +2°C° 0 mm 7 mps 770 mmHg 83%
    02:00 +1°C° 0 mm 6 mps 770 mmHg 84%
    03:00 +1°C° 0 mm 6 mps 770 mmHg 84%
    04:00 +1°C° 0 mm 6 mps 770 mmHg 85%
    05:00 +1°C° 0 mm 6 mps 770 mmHg 85%
    06:00 0°C° 0 mm 7 mps 771 mmHg 85%
    07:00 0°C° 0 mm 7 mps 771 mmHg 84%
    08:00 0°C° 0 mm 7 mps 771 mmHg 84%
    09:00 +2°C° 0.1 mm 7 mps 771 mmHg 80%
    10:00 +3°C° 0.1 mm 7 mps 772 mmHg 75%
    11:00 +4°C° 0.1 mm 7 mps 772 mmHg 71%
    12:00 +5°C° 0 mm 7 mps 772 mmHg 70%
    13:00 +5°C° 0 mm 7 mps 772 mmHg 70%
    14:00 +5°C° 0 mm 6 mps 771 mmHg 69%
    15:00 +5°C° 0 mm 6 mps 771 mmHg 71%
    16:00 +4°C° 0 mm 6 mps 772 mmHg 73%
    17:00 +4°C° 0 mm 6 mps 772 mmHg 75%
    18:00 +3°C° 0 mm 6 mps 772 mmHg 77%
    19:00 +3°C° 0 mm 6 mps 772 mmHg 79%
    20:00 +2°C° 0 mm 6 mps 772 mmHg 80%
    21:00 +2°C° 0 mm 6 mps 772 mmHg 80%
    22:00 +1°C° 0 mm 6 mps 772 mmHg 79%
    23:00 +1°C° 0 mm 5 mps 773 mmHg 79%

    18 November, Sunday

    Time Temperature Precipitation Wind Pressure Humidity
    00:00 +1°C° 0 mm 5 mps 772 mmHg 78%
    01:00 0°C° 0 mm 5 mps 772 mmHg 76%
    02:00 0°C° 0 mm 5 mps 772 mmHg 75%
    03:00 0°C° 0 mm 5 mps 772 mmHg 74%
    04:00 0°C° 0 mm 5 mps 772 mmHg 74%
    05:00 0°C° 0 mm 5 mps 771 mmHg 74%
    06:00 0°C° 0 mm 5 mps 771 mmHg 74%
    07:00 0°C° 0 mm 5 mps 771 mmHg 75%
    08:00 0°C° 0 mm 5 mps 771 mmHg 76%
    09:00 +1°C° 0 mm 5 mps 771 mmHg 71%
    10:00 +3°C° 0 mm 5 mps 771 mmHg 66%
    11:00 +5°C° 0 mm 5 mps 771 mmHg 61%
    12:00 +6°C° 0 mm 5 mps 770 mmHg 60%
    13:00 +6°C° 0 mm 4 mps 770 mmHg 59%
    14:00 +7°C° 0 mm 4 mps 769 mmHg 58%
    15:00 +6°C° 0 mm 4 mps 769 mmHg 62%
    16:00 +5°C° 0 mm 4 mps 768 mmHg 67%
    17:00 +4°C° 0 mm 3 mps 767 mmHg 71%
    18:00 +4°C° 0 mm 3 mps 767 mmHg 73%
    19:00 +3°C° 0 mm 3 mps 767 mmHg 75%
    20:00 +3°C° 0 mm 3 mps 767 mmHg 77%
    21:00 +3°C° 0 mm 3 mps 766 mmHg 79%
    22:00 +3°C° 0 mm 3 mps 766 mmHg 80%
    23:00 +2°C° 0 mm 3 mps 766 mmHg 82%

    19 November, Monday

    Time Temperature Precipitation Wind Pressure Humidity
    00:00 +2°C° 0 mm 3 mps 765 mmHg 82%
    01:00 +2°C° 0 mm 3 mps 765 mmHg 82%
    02:00 +2°C° 0 mm 3 mps 764 mmHg 82%
    03:00 +2°C° 0 mm 3 mps 764 mmHg 82%
    04:00 +2°C° 0 mm 3 mps 763 mmHg 82%
    05:00 +2°C° 0 mm 3 mps 763 mmHg 81%
    06:00 +2°C° 0 mm 3 mps 763 mmHg 79%
    07:00 +3°C° 0 mm 3 mps 763 mmHg 77%
    08:00 +4°C° 0 mm 2 mps 762 mmHg 75%
    09:00 +5°C° 0 mm 3 mps 762 mmHg 70%
    10:00 +7°C° 0 mm 3 mps 762 mmHg 66%
    11:00 +9°C° 0 mm 3 mps 762 mmHg 61%
    12:00 +9°C° 0.1 mm 3 mps 762 mmHg 63%
    13:00 +9°C° 0.1 mm 3 mps 761 mmHg 64%
    14:00 +9°C° 0.1 mm 3 mps 761 mmHg 66%
    15:00 +7°C° 0.9 mm 4 mps 761 mmHg 71%
    16:00 +6°C° 0.9 mm 4 mps 761 mmHg 76%
    17:00 +6°C° 0.9 mm 4 mps 761 mmHg 81%
    18:00 +5°C° 1.4 mm 4 mps 761 mmHg 83%
    19:00 +5°C° 1.4 mm 5 mps 761 mmHg 85%
    20:00 +5°C° 1.4 mm 5 mps 761 mmHg 87%
    21:00 +5°C° 0.8 mm 5 mps 761 mmHg 88%
    22:00 +5°C° 0.8 mm 5 mps 761 mmHg 89%
    23:00 +5°C° 0.8 mm 5 mps 761 mmHg 90%
    Show more